| time (UTC) | temp C | wind direction | speed KPH | gust KPH | rain 1hr cm | rain 24hr cm | rain mn cm | humidity % | barometer mb |
| 20260906231555 | 17 | 355 | 4.8 | 12.9 | 0.00 | 0.25 | 0.18 | 71 | 1017.8 |
| 20260906230057 | 17 | 358 | 1.6 | 6.4 | 0.00 | 0.25 | 0.18 | 72 | 1018.1 |
| 20260906224552 | 17 | 316 | 0.0 | 4.8 | 0.00 | 0.25 | 0.18 | 74 | 1018.3 |
| 20260906223053 | 17 | 260 | 0.0 | 4.8 | 0.00 | 0.25 | 0.18 | 74 | 1018.5 |
| 20260906221558 | 17 | 229 | 0.0 | 6.4 | 0.00 | 0.25 | 0.18 | 74 | 1018.5 |
| 20260906220049 | 17 | 61 | 0.0 | 8.0 | 0.00 | 0.25 | 0.18 | 73 | 1018.5 |
| 20260906214548 | 17 | 77 | 4.8 | 11.3 | 0.00 | 0.25 | 0.18 | 74 | 1018.4 |
| 20260906213054 | 17 | 58 | 6.4 | 12.9 | 0.00 | 0.25 | 0.18 | 73 | 1018.4 |
| 20260906211544 | 17 | 81 | 8.0 | 12.9 | 0.00 | 0.25 | 0.18 | 73 | 1018.3 |
| 20260906210050 | 17 | 65 | 8.0 | 17.7 | 0.00 | 0.25 | 0.18 | 72 | 1018.3 |
| 20260906204600 | 17 | 58 | 9.7 | 16.1 | 0.00 | 0.25 | 0.18 | 73 | 1018.4 |
| 20260906203041 | 17 | 46 | 11.3 | 19.3 | 0.00 | 0.25 | 0.18 | 72 | 1018.4 |
| 20260906201551 | 17 | 49 | 9.7 | 19.3 | 0.00 | 0.25 | 0.18 | 74 | 1018.5 |
| 20260906200038 | 17 | 31 | 12.9 | 19.3 | 0.00 | 0.25 | 0.18 | 72 | 1018.5 |
| 20260906194538 | 17 | 68 | 8.0 | 19.3 | 0.00 | 0.25 | 0.18 | 72 | 1018.6 |
| 20260906193035 | 17 | 65 | 9.7 | 19.3 | 0.00 | 0.25 | 0.18 | 70 | 1018.6 |
| 20260906191534 | 17 | 42 | 11.3 | 25.7 | 0.00 | 0.25 | 0.18 | 68 | 1018.5 |
| 20260906190032 | 18 | 37 | 16.1 | 24.1 | 0.00 | 0.25 | 0.18 | 70 | 1018.4 |
| 20260906184529 | 17 | 60 | 19.3 | 29.0 | 0.00 | 0.25 | 0.18 | 71 | 1018.5 |
| 20260906183022 | 16 | 55 | 17.7 | 27.4 | 0.00 | 0.25 | 0.18 | 77 | 1018.7 |
| 20260906181518 | 15 | 34 | 17.7 | 24.1 | 0.08 | 0.25 | 0.18 | 85 | 1018.8 |
| 20260906180018 | 14 | 40 | 6.4 | 12.9 | 0.08 | 0.25 | 0.18 | 88 | 1019.5 |
| 20260906174517 | 13 | 25 | 8.0 | 12.9 | 0.08 | 0.25 | 0.18 | 87 | 1019.8 |
| 20260906173010 | 13 | 17 | 6.4 | 12.9 | 0.08 | 0.25 | 0.18 | 85 | 1020.3 |
| 20260906171510 | 13 | 238 | 1.6 | 14.5 | 0.00 | 0.18 | 0.10 | 86 | 1020.7 |
| 20260906170008 | 14 | 335 | 0.0 | 6.4 | 0.00 | 0.18 | 0.10 | 83 | 1020.6 |
| 20260906164508 | 14 | 58 | 3.2 | 6.4 | 0.00 | 0.18 | 0.10 | 84 | 1020.6 |
| 20260906163007 | 14 | 109 | 0.0 | 3.2 | 0.05 | 0.18 | 0.10 | 87 | 1020.5 |
| 20260906161513 | 13 | 62 | 0.0 | 3.2 | 0.10 | 0.18 | 0.10 | 87 | 1020.4 |
| 20260906160004 | 13 | 40 | 0.0 | 6.4 | 0.10 | 0.18 | 0.10 | 88 | 1020.5 |
| 20260906154502 | 12 | 13 | 4.8 | 12.9 | 0.10 | 0.18 | 0.10 | 87 | 1020.9 |
| 20260906153005 | 12 | 349 | 8.0 | 16.1 | 0.03 | 0.10 | 0.03 | 86 | 1021.0 |
| 20260906151601 | 12 | 311 | 6.4 | 16.1 | 0.00 | 0.08 | 0.00 | 85 | 1021.1 |
| 20260906150058 | 12 | 305 | 6.4 | 17.7 | 0.00 | 0.10 | 0.00 | 86 | 1021.1 |
| 20260906144555 | 12 | 314 | 6.4 | 24.1 | 0.00 | 0.10 | 0.00 | 84 | 1021.5 |
| 20260906143053 | 14 | 281 | 3.2 | 9.7 | 0.00 | 0.10 | 0.00 | 80 | 1021.8 |
| 20260906141550 | 15 | 62 | 6.4 | 12.9 | 0.00 | 0.10 | 0.00 | 81 | 1021.0 |
| 20260906140049 | 15 | 65 | 9.7 | 20.9 | 0.00 | 0.23 | 0.00 | 81 | 1021.0 |
| 20260906134548 | 15 | 53 | 8.0 | 16.1 | 0.00 | 0.23 | 0.00 | 81 | 1020.9 |
| 20260906133049 | 15 | 44 | 6.4 | 14.5 | 0.00 | 0.23 | 0.00 | 82 | 1020.8 |
| 20260906131545 | 14 | 63 | 4.8 | 17.7 | 0.00 | 0.23 | 0.00 | 83 | 1020.6 |
| 20260906130042 | 14 | 58 | 9.7 | 17.7 | 0.00 | 0.23 | 0.00 | 82 | 1020.9 |
| 20260906124541 | 13 | 11 | 1.6 | 14.5 | 0.00 | 0.23 | 0.00 | 83 | 1021.2 |
| 20260906123039 | 13 | 26 | 11.3 | 22.5 | 0.00 | 0.23 | 0.00 | 83 | 1020.7 |
| 20260906121508 | 13 | 30 | 16.1 | 0.0 | 0.00 | 0.00 | 0.00 | 83 | 1020.7 |
| 20260906120005 | 13 | 32 | 14.5 | 20.9 | 0.00 | 0.23 | 0.00 | 84 | 1020.9 |
| 20260906114502 | 13 | 22 | 11.3 | 19.3 | 0.00 | 0.23 | 0.00 | 84 | 1021.3 |
| 20260906113000 | 13 | 49 | 9.7 | 16.1 | 0.00 | 0.23 | 0.00 | 84 | 1021.2 |
| 20260906111616 | 13 | 44 | 8.0 | 19.3 | 0.00 | 0.23 | 0.00 | 83 | 1021.1 |
| 20260906110100 | 12 | 24 | 9.7 | 17.7 | 0.00 | 0.23 | 0.00 | 82 | 1021.1 |
| 20260906104555 | 13 | 21 | 12.9 | 20.9 | 0.00 | 0.23 | 0.00 | 80 | 1021.2 |
| 20260906103054 | 13 | 32 | 12.9 | 19.3 | 0.00 | 0.23 | 0.00 | 80 | 1021.2 |
| 20260906101551 | 13 | 19 | 11.3 | 27.4 | 0.00 | 0.23 | 0.00 | 80 | 1021.3 |
| 20260906100050 | 13 | 19 | 11.3 | 19.3 | 0.00 | 0.23 | 0.00 | 79 | 1021.4 |
| 20260906094534 | 13 | 25 | 11.3 | 22.5 | 0.00 | 0.23 | 0.00 | 80 | 1021.3 |
| 20260906093032 | 14 | 351 | 12.9 | 29.0 | 0.00 | 0.23 | 0.00 | 79 | 1021.4 |
| 20260906091545 | 14 | 15 | 14.5 | 25.7 | 0.00 | 0.23 | 0.00 | 79 | 1021.7 |
| 20260906090053 | 14 | 333 | 16.1 | 30.6 | 0.00 | 0.23 | 0.00 | 79 | 1022.0 |
| 20260906084549 | 13 | 338 | 3.2 | 9.7 | 0.00 | 0.23 | 0.00 | 82 | 1022.7 |
| 20260906083042 | 13 | 300 | 1.6 | 17.7 | 0.00 | 0.23 | 0.00 | 81 | 1022.6 |
| 20260906081539 | 13 | 41 | 14.5 | 22.5 | 0.00 | 0.23 | 0.00 | 80 | 1021.9 |
| 20260906080040 | 14 | 30 | 14.5 | 25.7 | 0.00 | 0.23 | 0.00 | 79 | 1021.6 |
| 20260906074535 | 14 | 356 | 12.9 | 22.5 | 0.00 | 0.23 | 0.00 | 79 | 1021.8 |
| 20260906073040 | 14 | 20 | 16.1 | 25.7 | 0.00 | 0.23 | 0.00 | 78 | 1021.8 |
| 20260906071537 | 14 | 6 | 19.3 | 25.7 | 0.00 | 0.23 | 0.00 | 78 | 1021.9 |
| 20260906070032 | 14 | 16 | 14.5 | 22.5 | 0.00 | 0.23 | 0.00 | 79 | 1022.1 |
| 20260906064526 | 14 | 352 | 6.4 | 16.1 | 0.00 | 0.23 | 0.00 | 78 | 1022.8 |
| 20260906063025 | 14 | 32 | 16.1 | 24.1 | 0.00 | 0.23 | 0.00 | 78 | 1022.7 |
| 20260906061522 | 13 | 26 | 17.7 | 27.4 | 0.00 | 0.23 | 0.00 | 79 | 1022.6 |
| 20260906060022 | 13 | 8 | 11.3 | 17.7 | 0.00 | 0.23 | 0.23 | 79 | 1022.8 |
| 20260906054517 | 13 | 5 | 11.3 | 17.7 | 0.03 | 0.23 | 0.23 | 78 | 1022.7 |
| 20260906053016 | 13 | 335 | 9.7 | 17.7 | 0.03 | 0.23 | 0.23 | 79 | 1022.5 |
| 20260906051515 | 13 | 1 | 14.5 | 25.7 | 0.03 | 0.23 | 0.23 | 79 | 1022.5 |
| 20260906050015 | 13 | 4 | 20.9 | 35.4 | 0.03 | 0.23 | 0.23 | 79 | 1022.2 |
| 20260906044514 | 13 | 12 | 12.9 | 25.7 | 0.00 | 0.20 | 0.20 | 78 | 1023.3 |
| 20260906043011 | 13 | 18 | 22.5 | 30.6 | 0.03 | 0.20 | 0.20 | 79 | 1021.9 |
| 20260906041510 | 13 | 7 | 19.3 | 29.0 | 0.05 | 0.20 | 0.20 | 80 | 1021.7 |
| 20260906040012 | 13 | 20 | 19.3 | 29.0 | 0.05 | 0.20 | 0.20 | 79 | 1021.7 |
| 20260906034511 | 14 | 24 | 8.0 | 14.5 | 0.05 | 0.20 | 0.20 | 78 | 1022.4 |
| 20260906033014 | 15 | 344 | 8.0 | 12.9 | 0.00 | 0.15 | 0.15 | 68 | 1022.5 |
| 20260906031502 | 15 | 18 | 6.4 | 29.0 | 0.00 | 0.15 | 0.15 | 67 | 1022.6 |
| 20260906030002 | 15 | 300 | 22.5 | 33.8 | 0.00 | 0.15 | 0.15 | 67 | 1021.3 |
| 20260906024502 | 15 | 19 | 19.3 | 30.6 | 0.00 | 0.15 | 0.15 | 67 | 1020.7 |
| 20260906023102 | 15 | 18 | 20.9 | 29.0 | 0.00 | 0.15 | 0.15 | 66 | 1020.6 |
| 20260906021559 | 16 | 27 | 16.1 | 22.5 | 0.00 | 0.15 | 0.15 | 64 | 1020.7 |
| 20260906020055 | 16 | 34 | 12.9 | 20.9 | 0.00 | 0.15 | 0.15 | 61 | 1020.6 |
| 20260906014607 | 17 | 41 | 8.0 | 14.5 | 0.00 | 0.15 | 0.15 | 59 | 1020.6 |
| 20260906013055 | 17 | 24 | 9.7 | 19.3 | 0.00 | 0.15 | 0.15 | 58 | 1020.6 |
| 20260906011552 | 18 | 30 | 9.7 | 20.9 | 0.00 | 0.15 | 0.15 | 56 | 1020.6 |
| 20260906010049 | 18 | 359 | 16.1 | 22.5 | 0.00 | 0.15 | 0.15 | 55 | 1020.5 |
| 20260906004549 | 18 | 26 | 11.3 | 22.5 | 0.00 | 0.15 | 0.15 | 54 | 1020.6 |
| 20260906003105 | 19 | 33 | 12.9 | 20.9 | 0.00 | 0.15 | 0.15 | 54 | 1020.7 |
| 20260906001549 | 20 | 15 | 14.5 | 22.5 | 0.00 | 0.15 | 0.15 | 53 | 1020.7 |
| 20260906000045 | 20 | 37 | 17.7 | 22.5 | 0.00 | 0.15 | 0.15 | 53 | 1020.8 |
| 20260905234544 | 20 | 41 | 12.9 | 20.9 | 0.00 | 0.15 | 0.15 | 53 | 1021.1 |
| 20260905233043 | 20 | 67 | 11.3 | 19.3 | 0.00 | 0.15 | 0.15 | 50 | 1020.9 |